Other Public Products
Issued by NWS Charleston, SC

Current Version | Previous Version | Text Only | Print | Product List | Glossary Off
Versions: 1 2 3 4 5 6 7 8 9 10 11 12 13 14 15 16 17 18 19 20 21 22 23 24 25 26 27 28 29 30 31 32 33 34 35 36 37 38 39 40 41 42 43 44 45 46 47 48 49 50

485
FPUS82 KCHS 170212
OPUCHS

TEST...KCHS/KSAV Gateway Observations...TEST
National Weather Service Charleston SC
900 PM EST TUE JAN 16 2018

NOTE: "fair" indicates few or no clouds below 12,000 feet with no
significant weather and/or obstructions to visibility.

SCZ050-WAZ558-NCZ071-TXZ119-213-PAZ071-DCZ001-FLZ074-172-MI076-
NYZ176-178-MAZ016-IL014-TNZ027-NJZ106-GAZ044-MD014-170300-

...Gateway Observations for Charleston International...

CITY           SKY/WX    TMP DP  RH WIND       PRES   REMARKS
Chas Airport   FAIR      42  35  76 CALM      30.35F
Seattle        PTCLDY    49  41  74 S9        30.25S
Charlotte      CLOUDY    44  26  49 S8        30.30R
Dallas DFW     CLEAR     24   2  38 N14       30.72R WCI  12
Dallas Love    CLEAR     24   1  36 N12       30.75R WCI  13
Philladelphia  CLOUDY    39  31  72 E5        30.36F WCI  36
Wash National  CLOUDY    37  25  61 CALM      30.36F
Baltimore      CLOUDY    33  31  92 E5        30.35F WCI  29
Miami          MOCLDY    68  52  56 N7        30.24R
Detroit        LGT SNOW   9   4  80 SW10      30.46R WCI  -5
Newark         CLOUDY    33  27  78 NE8       30.39S WCI  26
Laguardia      CLOUDY    33  29  85 NE9       30.39F WCI  25
J F K          CLOUDY    33  30  88 NE7       30.40F WCI  27
Boston Logan   CLOUDY    32  27  81 SE7       30.45F WCI  26
Ft. Lauderdale FAIR      63  55  75 N6        30.24R
Chicago O`Hare FAIR      17   9  70 NW14      30.52R WCI   3
Chicago Midway FAIR      18  10  71 NW8       30.52R WCI   8
Houston Bush   CLOUDY    26  17  68 N15       30.68R WCI  14
Houston Hobby  CLOUDY    26  19  74 N16       30.68R WCI  14
Nashville      FAIR      10   0  63 N7        30.63R WCI  -1
Atlanta        LGT SNOW  32  30  92 NW13      30.37R FOG     WCI  22

$$

GAZ044-118-TXZ119-213-NCZ071-DCZ001-MDZ014-506-PAZ021-071-NJZ106-
NYZ176-178-MAZ106-OHZ011-021-055-MIZ076-KYZ091-ILZ014-INZ047-
MNZ060-ONZ431-170300-

...Gateway Observations for Savannah International...

CITY           SKY/WX    TMP DP  RH WIND       PRES   REMARKS
Savannah Arpt  MOCLDY    42  33  70 CALM      30.35S
Atlanta        LGT SNOW  32  30  92 NW13      30.37R FOG     WCI  22
Charlotte      CLOUDY    44  26  49 S8        30.30R
Dallas DFW     CLEAR     24   2  38 N14       30.72R WCI  12
Houston Bush   CLOUDY    26  17  68 N15       30.68R WCI  14
Wash National  CLOUDY    37  25  61 CALM      30.36F
Wash Dulles    CLOUDY    35  24  64 CALM      30.35S
Baltimore      CLOUDY    33  31  92 E5        30.35F WCI  29
Philadelphia   CLOUDY    39  31  72 E5        30.36F WCI  36
Newark         CLOUDY    33  27  78 NE8       30.39S WCI  26
Laguardia      CLOUDY    33  29  85 NE9       30.39F WCI  25
J F K          CLOUDY    33  30  88 NE7       30.40F WCI  27
Boston         CLOUDY    32  27  81 SE7       30.45F WCI  26
Pittsburg      FLURRIES  13   8  81 W6        30.42R WCI   4
Akron          FAIR       4  -2  76 CALM      30.44R
Cleveland      MOCLDY     5  -1  76 SW8       30.50R WCI  -8
Cincinnati     CLOUDY     8   2  76 W9        30.54R WCI  -5
Columbus       CLOUDY     6   1  78 W6        30.53R WCI  -4
Detroit        LGT SNOW   9   4  80 SW10      30.46R WCI  -5
Chicago O`Hare FAIR      17   9  70 NW14      30.52R WCI   3
Minneapolis    FAIR       1  -3  83 SW6       30.58F WCI -10
Indianapolis   CLOUDY     6   0  76 W12       30.57S WCI  -9
Toronto Canada FLURRIES  19  14  79 W12       30.37R WCI   7

$$




USA.gov is the U.S. government's official web portal to all federal, state and local government web resources and services.